OneWeb SL0267

operational
NORAD ID: 48985 Int'l Des: 2021-060 Owner: ONEWEBN Country: UK Constellation: oneweb
LEOCIRCULARPOLARONEWEB_TYPE

About OneWeb SL0267

Description loading...

Live Position

Loading 3D Globe...

Upcoming Passes

Altitude History

Altitude vs Time

uPlot chart will show altitude changes over time

Two-Line Element Set

1 48985U 21060U 25304.16192681 .00000077 00000-0 16829-3 0 9994
2 48985 87.8992 274.3914 0001931 92.1936 267.9416 13.16593108209455
Epoch: Oct 31, 2025 • Age: 12 hours

Current Status

Altitude 1202.4 km
Velocity 7.25 km/s
Sub-Earth Point -8.85°S, 177.64°E
Launch Date Jul 1, 2021
Age 4.3 years
Type internet

Technical Details

Classification Payload
Mass 148.00 kg
Dry Mass 140.00 kg
Total Mass 148.00 kg
Length 1.30 m
Diameter 1.00 m
Span 5.00 m
Shape Trapezoid+2 pan
Manufacturer ONEWUS
Bus Type ARROW
Phase Status In Orbit
Owner/State ONEWEBN/UK

Large Constellations

Loading constellations...